Date String (YYYY-MM-DD hh:mm:ss) UTC,Instrument flags,Ambient pressure (hPa),Sample flow (lpm),Bypass flow (lpm),Sample temperature (°C),Ambient temperature (°C),ASC tube jacket temperature (°C),LED temperature (°C),Box temperature (°C),Sample RH (%),Span deviation,Mass concentration (μg/m³),Mass concentration (μg/m³),Mass concentration (μg/m³)
DateTimeUTC,F1_M11,P_M11,Q1_M11,Q2_M11,T1_M11,T2_M11,T3_M11,T4_M11,T5_M11,U1_M11,ZSPAN_M11,X2_M11,X0_M11,X1_M11
2021-09-01 02:00:00,,0822.2,4.99,0.00,29.3,28.5,00.0,38.2,31.2,14.3,0001.0,0036.18,0062.21,0033.77
2021-09-01 02:01:00,,0822.2,5.00,0.00,29.3,27.1,00.0,38.2,30.9,14.4,0001.1,0036.07,0061.29,0033.69
2021-09-01 02:02:00,,0822.2,5.00,0.00,29.1,25.6,00.0,38.2,30.5,14.6,0001.0,0036.01,0061.32,0033.66
2021-09-01 02:03:00,,0822.2,5.01,0.00,29.0,25.7,00.0,38.1,30.5,14.6,0000.9,0036.10,0061.09,0033.66
2021-09-01 02:04:00,,0822.2,5.00,0.00,29.0,26.2,00.0,38.1,30.5,14.7,0000.6,0036.13,0059.95,0033.65
2021-09-01 02:05:00,,0822.2,5.01,0.00,29.0,26.6,00.0,38.1,30.6,14.7,0000.5,0036.18,0059.98,0033.68
2021-09-01 02:06:00,,0822.2,4.99,0.00,29.0,27.1,00.0,38.1,30.8,14.6,0000.4,0036.16,0060.08,0033.64
2021-09-01 02:07:00,,0822.2,4.99,0.00,29.0,27.4,00.0,38.1,30.9,14.6,0000.3,0036.16,0058.17,0033.64
2021-09-01 02:08:00,,0822.4,5.01,0.00,29.1,27.8,00.0,38.1,31.0,14.6,0000.1,0036.12,0059.04,0033.60
2021-09-01 02:09:00,,0822.4,5.00,0.00,29.1,28.0,00.0,38.1,31.1,14.6,0000.0,0036.07,0059.19,0033.57
2021-09-01 02:10:00,,0822.4,5.00,0.00,29.2,28.3,00.0,38.1,31.1,14.5,0000.0,0036.09,0058.98,0033.60
2021-09-01 02:11:00,,0822.4,5.00,0.00,29.3,28.4,00.0,38.2,31.2,14.5,0000.1,0036.14,0060.55,0033.59
2021-09-01 02:12:00,,0822.4,5.01,0.00,29.3,28.6,00.0,38.2,31.3,14.4,0000.1,0036.20,0062.07,0033.60
2021-09-01 02:13:00,,0822.4,4.99,0.00,29.4,28.5,00.0,38.2,31.3,14.0,-000.1,0036.19,0062.21,0033.59
2021-09-01 02:14:00,,0822.4,4.99,0.00,29.3,26.8,00.0,38.2,30.8,12.8,0000.1,0036.19,0061.69,0033.69
2021-09-01 02:15:00,,0822.4,5.00,0.00,29.1,25.6,00.0,38.2,30.5,13.4,0000.5,0036.32,0061.69,0033.82
2021-09-01 02:16:00,,0822.4,5.01,0.00,29.1,25.9,00.0,38.2,30.5,14.3,0000.6,0036.29,0061.76,0033.81
2021-09-01 02:17:00,,0822.4,5.00,0.00,29.0,26.3,00.0,38.2,30.6,14.5,0000.7,0036.19,0061.99,0033.74
2021-09-01 02:18:00,,0822.4,5.00,0.00,29.0,26.8,00.0,38.1,30.7,14.6,0000.7,0036.03,0061.42,0033.61
2021-09-01 02:19:00,,0822.4,5.00,0.00,29.0,27.2,00.0,38.1,30.8,14.6,0000.8,0035.88,0059.49,0033.44
2021-09-01 02:20:00,,0822.4,5.01,0.00,29.1,27.5,00.0,38.1,30.9,14.3,0000.9,0035.67,0058.97,0033.26
2021-09-01 02:21:00,,0822.4,5.00,0.00,29.1,27.9,00.0,38.1,31.0,13.6,0000.9,0035.49,0058.67,0033.13
2021-09-01 02:22:00,,0822.4,4.99,0.00,29.2,28.1,00.0,38.2,31.1,13.5,0001.0,0035.45,0056.26,0033.17
2021-09-01 02:23:00,,0822.4,4.99,0.00,29.3,28.3,00.0,38.2,31.2,13.5,0000.9,0035.47,0054.83,0033.22
2021-09-01 02:24:00,,0822.4,5.00,0.00,29.3,28.5,00.0,38.2,31.3,13.4,0001.2,0035.40,0054.11,0033.18
2021-09-01 02:25:00,,0822.4,5.00,0.00,29.4,28.6,00.0,38.2,31.3,13.1,0001.2,0035.34,0054.62,0033.09
2021-09-01 02:26:00,,0822.4,5.00,0.00,29.3,27.2,00.0,38.3,31.0,13.2,0001.1,0035.16,0053.87,0033.00
2021-09-01 02:27:00,,0822.4,5.00,0.00,29.2,25.6,00.0,38.2,30.5,14.1,0001.2,0034.98,0053.27,0032.84
2021-09-01 02:28:00,,0822.4,5.00,0.00,29.1,25.7,00.0,38.2,30.5,14.4,0001.2,0034.79,0052.31,0032.67
2021-09-01 02:29:00,,0822.4,5.00,0.00,29.0,26.1,00.0,38.2,30.6,13.8,0001.1,0034.73,0052.31,0032.60
2021-09-01 02:30:00,,0822.5,5.00,0.00,29.0,26.6,00.0,38.2,30.7,13.8,0000.9,0034.68,0052.82,0032.58
2021-09-01 02:31:00,,0822.6,5.01,0.00,29.0,27.0,00.0,38.1,30.8,14.0,0000.9,0034.65,0051.92,0032.55
2021-09-01 02:32:00,,0822.6,4.99,0.00,29.1,27.4,00.0,38.1,30.9,13.4,0001.0,0034.68,0051.88,0032.58
2021-09-01 02:33:00,,0822.6,5.01,0.00,29.1,27.7,00.0,38.1,31.0,13.6,0000.9,0034.56,0052.13,0032.48
2021-09-01 02:34:00,,0822.6,5.00,0.00,29.2,28.0,00.0,38.2,31.1,13.9,0001.0,0034.29,0051.70,0032.23
2021-09-01 02:35:00,,0822.6,4.99,0.00,29.2,28.2,00.0,38.2,31.1,13.8,0001.0,0034.13,0051.38,0032.06
2021-09-01 02:36:00,,0822.6,5.01,0.00,29.3,28.4,00.0,38.2,31.2,13.4,0000.8,0033.92,0050.95,0031.85
2021-09-01 02:37:00,,0822.6,5.00,0.00,29.3,28.5,00.0,38.2,31.3,13.6,0000.8,0033.86,0050.79,0031.73
2021-09-01 02:38:00,,0822.6,5.01,0.00,29.3,27.7,00.0,38.3,31.0,13.5,0000.8,0033.82,0050.88,0031.66
2021-09-01 02:39:00,,0822.7,4.98,0.00,29.2,25.8,00.0,38.2,30.5,13.7,0000.6,0033.94,0050.94,0031.74
2021-09-01 02:40:00,,0822.6,5.01,0.00,29.0,25.4,00.0,38.2,30.4,14.1,0000.5,0033.94,0050.41,0031.72
2021-09-01 02:41:00,,0822.6,4.99,0.00,29.0,25.8,00.0,38.2,30.5,14.1,0000.5,0033.93,0050.42,0031.72
2021-09-01 02:42:00,,0822.6,5.00,0.00,28.9,26.3,00.0,38.1,30.6,14.5,0000.6,0033.92,0049.99,0031.67
2021-09-01 02:43:00,,0822.6,5.01,0.00,28.9,26.8,00.0,38.1,30.7,13.9,0000.6,0033.80,0049.75,0031.56
2021-09-01 02:44:00,,0822.6,5.00,0.00,29.0,27.2,00.0,38.1,30.8,13.6,0000.7,0033.59,0049.08,0031.35
2021-09-01 02:45:00,,0822.6,5.00,0.00,29.0,27.5,00.0,38.1,30.9,13.7,0000.7,0033.52,0048.69,0031.30
2021-09-01 02:46:00,,0822.6,5.00,0.00,29.1,27.8,00.0,38.1,31.0,13.8,0000.5,0033.49,0049.30,0031.29
2021-09-01 02:47:00,,0822.6,5.00,0.00,29.1,28.0,00.0,38.1,31.0,13.7,0000.5,0033.38,0049.74,0031.23
2021-09-01 02:48:00,,0822.7,5.00,0.00,29.2,28.2,00.0,38.2,31.1,13.3,0000.4,0033.33,0050.42,0031.20
2021-09-01 02:49:00,,0822.6,5.00,0.00,29.2,28.4,00.0,38.2,31.2,13.2,0000.4,0033.42,0050.95,0031.32
2021-09-01 02:50:00,,0822.7,5.00,0.00,29.3,28.5,00.0,38.2,31.2,13.5,0000.4,0033.43,0052.27,0031.33
2021-09-01 02:51:00,,0822.7,5.00,0.00,29.4,28.6,00.0,38.2,31.3,13.4,0000.6,0033.44,0052.80,0031.37
2021-09-01 02:52:00,,0822.7,5.01,0.00,29.3,27.4,00.0,38.3,31.0,14.0,0000.8,0033.41,0053.28,0031.34
2021-09-01 02:53:00,,0822.7,4.98,0.00,29.1,25.5,00.0,38.2,30.4,13.8,0000.8,0033.50,0053.96,0031.42
2021-09-01 02:54:00,,0822.7,5.00,0.00,29.0,25.4,00.0,38.2,30.4,13.6,0000.6,0033.62,0055.25,0031.54
2021-09-01 02:55:00,,0822.7,5.01,0.00,29.0,25.8,00.0,38.2,30.5,13.5,0000.5,0033.84,0055.47,0031.74
2021-09-01 02:56:00,,0822.7,4.99,0.00,28.9,26.3,00.0,38.1,30.6,13.5,0000.7,0034.09,0056.66,0031.95
2021-09-01 02:57:00,,0822.7,5.00,0.00,28.9,26.8,00.0,38.1,30.7,13.5,0000.6,0034.33,0056.82,0032.19
2021-09-01 02:58:00,,0822.8,4.99,0.00,29.0,27.2,00.0,38.1,30.7,13.7,0000.7,0034.60,0058.67,0032.44
2021-09-01 02:59:00,,0822.8,4.99,0.00,29.0,27.5,00.0,38.1,30.8,13.6,0000.7,0034.79,0059.84,0032.60
